O3B FM20 (44112 NORAD) Tracking and Keplerian Element Data

This shows tracking and keplerian element data for the satellite.

Feedback or suggestion? Click here.




ElementValue
Catalog44112
NameO3B FM20
Epoch Orbit69
Epoch Day108.42732145
Epoch Year2019
RAAN330.6945
Inclination0.0365
Eccentricity0.0010733
Argument of Perigee182.8532
Mean Anonmoly142.8662
Mean Motion5.12927155
Decay Rate-2.5E-07
L11 44112U 19020A 19108.42732145 -.00000025 00000-0 00000+0 0 9998
L22 44112 0.0365 330.6945 0010733 182.8532 142.8662 5.12927155 692

Live tracking and technical data element details for O3B FM20 (NORAD 44112). O3B FM20 can be tracked NOW for your location showing map with azimuth and elevation plus other details from your city location.

Track the satellite on the map from your city or location and see movement details for azimuth, elevation, latitude, longitude, range, height, and movement on the map or in text.







IsCatalogInMostPopularTable: catalog: 44112, numindb: 6
Update: records affected: 1



GetName: 44112 O3B FM20

Hit Count: updated at: Tue, 23 Apr 2019 02:55:47 GMT